Location: Glencliff
(36.1226°N, 86.7183°W)
Time: 12:16:51
(UTC+00:00)

Aureole 3 Rocket - Pass Details

Date: 25 August 2019
Orbit: 398 x 1742 km, 82.5° (Epoch: 16 September)

Event Time Altitude Azimuth Distance (km) Brightness Sun altitude
Exits shadow 02:09:11 46° 185° (S) 677 3.0 -20.1°
Maximum altitude 02:10:11 89° 110° (ESE) 479 2.4 -20.3°
Drops below altitude 10° 02:13:23 10° 7° (N) 1,518 5.4 -20.8°
Sets 02:15:15 0° 7° (N) 2,339 6.4 -21.1°
